Regional Weather Roundup
Issued by NWS

Home | Current Version | Previous Version | Text Only | Print | Product List | Glossary Off
Versions: 1 2 3 4 5 6 7 8 9 10 11 12 13 14 15 16 17 18 19 20 21 22 23 24 25 26 27 28 29 30 31 32 33 34 35 36 37 38 39 40 41 42 43 44 45 46 47 48 49 50

000
ASUS43 KLSX 021007
RWRMO

WEATHER SUMMARY FOR MISSOURI
NATIONAL WEATHER SERVICE SPRINGFIELD MO
500 AM CDT THU JUL 02 2015

NOTE: "FAIR" INDICATES FEW OR NO CLOUDS BELOW 12,000 FEET WITH NO
       SIGNIFICANT WEATHER AND/OR OBSTRUCTIONS TO VISIBILITY.
       CURRENT SKY AND/OR WEATHER CONDITIONS ARE NOT AVAILABLE FOR
       CHILLICOTHE AND FARMINGTON.

MOZ001>031-035>038-043-044-053-054-021100-
...NORTHERN AND WESTERN MISSOURI...

CITY           SKY/WX    TMP DP  RH WIND       PRES   REMARKS
KANSAS CTY INT CLOUDY    72  69  90 NE10      29.86R
KANSAS C DTWN  CLOUDY    74  70  87 NE10      29.84S
LEE`S SUMMIT   CLOUDY    71  69  93 E9        29.85S
ST JOSEPH      CLOUDY    71  67  87 NE8       29.88R
CHILLICOTHE      N/A     71  67  87 E7        29.90R
KIRKSVILLE     CLOUDY    65  63  93 NE12      29.91R

$$
MOZ066>068-077>081-088>096-101>105-021100-
...SOUTHWEST MISSOURI...

CITY           SKY/WX    TMP DP  RH WIND       PRES   REMARKS
SPRINGFIELD    CLOUDY    70  66  87 SE8       29.86F THUNDER
JOPLIN         CLOUDY    75  70  84 E5        29.82R

$$
MOZ032>034-039>042-045>050-055>058-069>072-021100-
...CENTRAL MISSOURI...

CITY           SKY/WX    TMP DP  RH WIND       PRES   REMARKS
COLUMBIA       MOCLDY    70  68  93 N5        29.85R
JEFFERSON CITY CLOUDY    70  68  93 E3        29.84R
ROLLA          MOCLDY    66  66 100 CALM      29.83F
SEDALIA        CLOUDY    72  69  90 E6        29.85R
WHITEMAN AFB   CLOUDY    71  70  97 E6        29.83R
WARRENSBURG    CLOUDY    70  68  94 NE6       29.84R
OSAGE BEACH    CLOUDY    68  64  88 CALM      29.84S

$$
MOZ051-052-059>065-021100-
...EAST CENTRAL MISSOURI...

CITY           SKY/WX    TMP DP  RH WIND       PRES   REMARKS
ST LOUIS INTL  CLOUDY    74  69  85 NE8       29.84S
SPIRIT OF STL  CLOUDY    71  71 100 SE3       29.82S
ST CHARLES     CLOUDY    71  70  96 E12       29.82F FOG

$$
MOZ072>076-082>087-097>100-106>115-021100-
...SOUTH CENTRAL AND SOUTHEAST MISSOURI...

CITY           SKY/WX    TMP DP  RH WIND       PRES   REMARKS
CAPE GIRARDEAU CLOUDY    70  68  93 S5        29.85R
FARMINGTON     CLOUDY    66  64  94 SW3       29.90R
WEST PLAINS    LGT RAIN  70  66  87 S12       29.87F

$$



USA.gov is the U.S. government's official web portal to all federal, state and local government web resources and services.